Date String (YYYY-MM-DD hh:mm:ss) UTC,Instrument flags,Ambient pressure (hPa),Sample flow (lpm),Bypass flow (lpm),Sample temperature (°C),Ambient temperature (°C),ASC tube jacket temperature (°C),LED temperature (°C),Box temperature (°C),Sample RH (%),Span deviation,Mass concentration (μg/m³),Mass concentration (μg/m³),Mass concentration (μg/m³)
DateTimeUTC,F1_M11,P_M11,Q1_M11,Q2_M11,T1_M11,T2_M11,T3_M11,T4_M11,T5_M11,U1_M11,ZSPAN_M11,X0_M11,X2_M11,X1_M11
2021-11-02 18:00:00,,0830.8,4.99,0.00,23.7,22.9,00.0,32.7,25.5,21.6,-002.0,0013.03,0009.91,0009.45
2021-11-02 18:01:00,,0830.7,5.00,0.00,23.7,22.9,00.0,32.7,25.5,21.8,-001.7,0012.91,0009.88,0009.42
2021-11-02 18:02:00,,0830.7,5.00,0.00,23.8,23.0,00.0,32.7,25.5,21.6,-001.7,0012.47,0009.83,0009.37
2021-11-02 18:03:00,,0830.6,4.99,0.00,23.8,23.0,00.0,32.7,25.6,22.0,-001.5,0013.19,0009.83,0009.36
2021-11-02 18:04:00,,0830.6,5.00,0.00,23.8,23.0,00.0,32.7,25.6,22.3,-001.5,0013.42,0009.84,0009.36
2021-11-02 18:05:00,,0830.6,5.01,0.00,23.8,22.9,00.0,32.8,25.6,22.4,-001.2,0013.41,0009.83,0009.34
2021-11-02 18:06:00,,0830.6,5.00,0.00,23.8,23.0,00.0,32.8,25.6,22.3,-001.2,0013.42,0009.81,0009.31
2021-11-02 18:07:00,,0830.6,5.00,0.00,23.8,23.0,00.0,32.8,25.6,22.4,-001.0,0013.47,0009.84,0009.31
2021-11-02 18:08:00,,0830.5,4.99,0.00,23.8,23.0,00.0,32.8,25.6,22.4,-001.1,0013.52,0009.87,0009.34
2021-11-02 18:09:00,,0830.5,5.01,0.00,23.8,23.0,00.0,32.8,25.6,22.5,-001.2,0014.03,0009.97,0009.39
2021-11-02 18:10:00,,0830.5,5.00,0.00,23.8,23.0,00.0,32.8,25.6,22.4,-001.0,0014.02,0010.05,0009.44
2021-11-02 18:11:00,,0830.6,5.00,0.00,23.8,23.0,00.0,32.8,25.6,22.4,-000.9,0014.22,0010.13,0009.50
2021-11-02 18:12:00,,0830.5,5.00,0.00,23.8,23.0,00.0,32.8,25.6,22.3,-001.2,0014.21,0010.16,0009.54
2021-11-02 18:13:00,,0830.5,5.00,0.00,23.8,23.0,00.0,32.8,25.6,22.2,-001.3,0014.31,0010.20,0009.56
2021-11-02 18:14:00,,0830.5,5.00,0.00,23.8,23.0,00.0,32.8,25.6,22.0,-001.7,0013.74,0010.18,0009.54
2021-11-02 18:15:00,,0830.5,4.99,0.00,23.8,23.0,00.0,32.8,25.6,22.2,-001.7,0013.44,0010.16,0009.51
2021-11-02 18:16:00,,0830.5,5.00,0.00,23.8,23.0,00.0,32.8,25.6,22.3,-001.7,0013.43,0010.14,0009.48
2021-11-02 18:17:00,,0830.4,5.00,0.00,23.8,23.0,00.0,32.8,25.6,22.3,-001.6,0013.72,0010.13,0009.49
2021-11-02 18:18:00,,0830.4,5.01,0.00,23.8,23.0,00.0,32.8,25.6,22.1,-001.8,0013.68,0010.09,0009.47
2021-11-02 18:19:00,,0830.4,5.00,0.00,23.8,23.0,00.0,32.8,25.6,22.4,-001.9,0013.72,0010.10,0009.47
2021-11-02 18:20:00,,0830.4,5.00,0.00,23.8,23.0,00.0,32.8,25.6,22.4,-001.8,0013.55,0010.06,0009.43
2021-11-02 18:21:00,,0830.4,5.00,0.00,23.8,23.0,00.0,32.8,25.6,22.5,-001.9,0013.64,0010.07,0009.40
2021-11-02 18:22:00,,0830.4,5.00,0.00,23.8,23.0,00.0,32.8,25.6,22.3,-002.0,0013.66,0010.09,0009.39
2021-11-02 18:23:00,,0830.4,5.01,0.00,23.8,23.0,00.0,32.8,25.6,22.1,-002.0,0013.76,0010.12,0009.39
2021-11-02 18:24:00,,0830.4,4.99,0.00,23.8,23.0,00.0,32.8,25.6,22.0,-002.0,0013.76,0010.13,0009.39
2021-11-02 18:25:00,,0830.4,5.01,0.00,23.8,23.0,00.0,32.8,25.6,22.2,-001.8,0013.82,0010.16,0009.41
2021-11-02 18:26:00,,0830.4,5.00,0.00,23.8,23.0,00.0,32.8,25.6,22.5,-001.7,0013.91,0010.16,0009.43
2021-11-02 18:27:00,,0830.3,4.99,0.00,23.8,23.0,00.0,32.8,25.6,22.3,-001.8,0013.83,0010.14,0009.44
2021-11-02 18:28:00,,0830.4,5.00,0.00,23.8,23.0,00.0,32.8,25.6,22.3,-001.9,0014.21,0010.18,0009.45
2021-11-02 18:29:00,,0830.3,5.01,0.00,23.8,23.0,00.0,32.8,25.6,22.1,-001.9,0015.64,0010.23,0009.47
2021-11-02 18:30:00,,0830.4,4.99,0.00,23.8,23.0,00.0,32.8,25.6,22.1,-001.6,0016.23,0010.24,0009.47
2021-11-02 18:31:00,,0830.3,5.01,0.00,23.8,23.0,00.0,32.8,25.6,22.1,-001.2,0016.56,0010.28,0009.50
2021-11-02 18:32:00,,0830.3,5.00,0.00,23.8,23.0,00.0,32.8,25.6,22.3,-001.0,0016.27,0010.20,0009.50
2021-11-02 18:33:00,,0830.2,5.00,0.00,23.8,23.0,00.0,32.8,25.6,22.5,-001.0,0016.07,0010.15,0009.51
2021-11-02 18:34:00,,0830.2,5.01,0.00,23.8,23.0,00.0,32.8,25.6,22.4,-000.9,0016.02,0010.14,0009.51
2021-11-02 18:35:00,,0830.2,5.00,0.00,23.8,23.0,00.0,32.8,25.6,22.6,-000.8,0016.47,0010.15,0009.54
2021-11-02 18:36:00,,0830.3,5.00,0.00,23.8,23.0,00.0,32.8,25.6,22.4,-000.9,0016.50,0010.14,0009.54
2021-11-02 18:37:00,,0830.2,4.99,0.00,23.8,23.0,00.0,32.8,25.6,22.0,-000.8,0016.38,0010.11,0009.52
2021-11-02 18:38:00,,0830.2,5.02,0.00,23.8,23.0,00.0,32.8,25.6,21.8,-000.5,0016.35,0010.10,0009.50
2021-11-02 18:39:00,,0830.1,4.98,0.00,23.8,23.0,00.0,32.8,25.6,21.8,-000.4,0016.32,0010.10,0009.50
2021-11-02 18:40:00,,0830.2,5.00,0.00,23.8,23.1,00.0,32.8,25.6,22.2,0000.0,0015.37,0010.11,0009.51
2021-11-02 18:41:00,,0830.2,5.02,0.00,23.8,23.1,00.0,32.8,25.6,22.3,-000.1,0014.28,0010.18,0009.56
2021-11-02 18:42:00,,0830.2,4.98,0.00,23.8,23.1,00.0,32.8,25.6,22.3,-000.3,0013.68,0010.22,0009.62
2021-11-02 18:43:00,,0830.1,5.01,0.00,23.8,23.1,00.0,32.8,25.6,22.2,-000.5,0013.67,0010.26,0009.69
2021-11-02 18:44:00,,0830.1,4.99,0.00,23.8,23.1,00.0,32.8,25.6,22.2,-000.5,0013.99,0010.34,0009.75
2021-11-02 18:45:00,,0830.1,5.01,0.00,23.8,23.1,00.0,32.8,25.6,22.3,-000.5,0014.37,0010.41,0009.81
2021-11-02 18:46:00,,0830.1,4.99,0.00,23.8,23.1,00.0,32.8,25.6,22.5,-000.1,0014.36,0010.46,0009.87
2021-11-02 18:47:00,,0830.1,5.01,0.00,23.9,23.1,00.0,32.8,25.6,22.7,0000.2,0014.31,0010.54,0009.94
2021-11-02 18:48:00,,0830.1,5.01,0.00,23.9,23.1,00.0,32.8,25.7,22.6,0000.2,0014.36,0010.64,0010.04
2021-11-02 18:49:00,,0830.1,4.99,0.00,23.9,23.1,00.0,32.8,25.7,22.4,-000.4,0014.55,0010.77,0010.14
2021-11-02 18:50:00,,0830.1,4.99,0.00,23.9,23.1,00.0,32.9,25.6,22.4,-000.4,0014.48,0010.85,0010.21
2021-11-02 18:51:00,,0830.1,5.01,0.00,23.9,23.1,00.0,32.9,25.6,22.1,-000.7,0014.50,0010.90,0010.26
2021-11-02 18:52:00,,0830.1,4.99,0.00,23.9,23.1,00.0,32.9,25.7,22.1,-000.4,0014.49,0010.87,0010.25
2021-11-02 18:53:00,,0830.1,5.01,0.00,23.9,23.1,00.0,32.9,25.6,22.1,-000.7,0014.48,0010.83,0010.22
2021-11-02 18:54:00,,0830.1,4.99,0.00,23.9,23.1,00.0,32.9,25.7,22.0,-000.7,0014.36,0010.78,0010.18
2021-11-02 18:55:00,,0830.1,5.01,0.00,23.9,23.1,00.0,32.9,25.7,22.1,-000.8,0014.12,0010.76,0010.15
2021-11-02 18:56:00,,0830.1,5.00,0.00,23.9,23.1,00.0,32.9,25.7,22.0,-000.4,0013.91,0010.73,0010.13
2021-11-02 18:57:00,,0830.1,5.01,0.00,23.9,23.1,00.0,32.9,25.7,22.0,-000.8,0013.35,0010.71,0010.10
2021-11-02 18:58:00,,0830.1,5.00,0.00,23.9,23.1,00.0,32.9,25.7,22.1,-001.0,0013.57,0010.67,0010.05
2021-11-02 18:59:00,,0830.1,5.01,0.00,23.9,23.1,00.0,32.9,25.7,22.2,-001.2,0013.71,0010.63,0010.01
